Location: Fernhill
(41.0167°S, 175.6333°E)
Time: 07:19:42
(UTC+00:00)

Cosmos 1980 Rocket - Pass Details

Date: 08 November 2025
Orbit: 829 x 848 km, 71.0° (Epoch: 11 December)

Event Time Altitude Azimuth Distance (km) Brightness Sun altitude
Rises 09:31:07 0° 193° (SSW) 3,424 6.4 -22.6°
Reaches altitude 10° 09:34:12 10° 177° (S) 2,487 5.3 -23.0°
Maximum altitude 09:38:29 21° 128° (SE) 1,809 3.9 -23.5°
Enters shadow 09:40:00 19° 107° (ESE) 1,903 3.8 -23.7°
